COSMOS 2169

Satellite information

Favourite Embed

Satellite Type and Status

PAYLOADIN ORBIT

Key statistics

Satellite COSMOS 2169 at a glance.

Uptime

12403

Days in orbit

Revolutions

≈ 12.7

Per day

Orbit

LEO

Low Earth Orbit

Inclination

82.6

Latest

Satellite identification and parameters

Extended collection of information and parameters for COSMOS 2169.

Object identification

Identified? True

Debris? False

Object name: COSMOS 2169

International designator: 1991-077E

Object number (NORAD): 21783

Object ID (CCSDS): 21783

Country: COMMONWEALTH OF INDEPENDENT STATES (CIS)

Current information (Y/N): Y

RCS size: MEDIUM

Orbital parameters

Period: 113.716 minutes

Inclination: 82.6076 deg

SMA: 7775.156 km

Apoapsis: 1411.6 km

Periapsis: 1382.442 km

RAAN: 357.9517 deg

Eccentricy: 0.0018751

Argument of periapsis: 141.3887 deg

Mean anomaly: 218.8551 deg

Mean motion: 12.66307243 rev/day

Mean motion (dot): 0.00000024 rev/day2

B* drag term: 0.000069723247 1/REarth

Two-line elements (TLE)

Creation date: Oct. 27, 2025, 2:46 a.m.

Reference frame: TEME

Reference center: EARTH

Epoch: Oct. 26, 2025, 9:25 p.m. UTC

TLE line 0: 0 COSMOS 2169

TLE line 1: 1 21783U 91077E 25299.89267912 .00000024 00000-0 69723-4 0 9993

TLE line 2: 2 21783 82.6076 357.9517 0018751 141.3887 218.8551 12.66307243569265

Live tracking on map

Real-time ground track for satellite COSMOS 2169.

In-orbit conjunctions

There are no conjunctions computed for COSMOS 2169, at the moment. Check back to stay up to date, as we update our databases every day.

Go to all conjunctions

Associated space launch

Second generation store-dump military communications satellite

COSMOS 2169 was lifted into orbit during the mission ‘Tsiklon-3 | Strela-3 73 to 78’, on board a Tsiklon-3 space rocket.

The launch took place on Nov. 12, 1991, 8:09 p.m. from 32/1.

For more information about the launch, click the button.

Launch to space Tsiklon-3 | Strela-3 73 to 78
Tsiklon-3 | Strela-3 73 to 78

Agency: N/A

Status: Launch Successful

Launch date: Nov. 12, 1991, 8:09 p.m. UTC

Rocket: Tsiklon-3

Launch pad: 32/1

Location: Plesetsk Cosmodrome, Russian Federation

...

Latest news about this satellite

There are no fresh news available about this satellite. Check back as we update our databases every day.


Newsletter sign-up

Weekly statistics, charts and insights to help you stay on top of the space industry.